Regional Weather Roundup
Issued by NWS

Home | Current Version | Previous Version | Text Only | Print | Product List | Glossary Off
Versions: 1 2 3 4 5 6 7 8 9 10 11 12 13 14 15 16 17 18 19 20 21 22 23 24 25 26 27 28 29 30 31 32 33 34 35 36 37 38 39 40 41 42 43 44 45 46 47 48 49 50

000
ASUS43 KFSD 232210
RWRSD

WEATHER ROUNDUP FOR SOUTH DAKOTA
NATIONAL WEATHER SERVICE SIOUX FALLS SD
500 PM CDT THU MAR 23 2017

NOTE: "FAIR" INDICATES FEW OR NO CLOUDS BELOW 12,000 FEET WITH NO
SIGNIFICANT WEATHER AND/OR OBSTRUCTIONS TO VISIBILITY.


SDZ001>005-009-010-012>017-232300-
NORTHWEST AND NORTH CENTRAL SOUTH DAKOTA

CITY           SKY/WX    TMP DP  RH WIND       PRES   REMARKS
BUFFALO          N/A     44  41  89 NE18      29.71R
FAITH            N/A     49  40  71 N20       29.71R
MOBRIDGE       MOSUNNY   58  36  43 N17       29.65R
$$

SDZ012>016-024>037-041>051-057-063-072>074-232300-
SOUTHWEST AND SOUTH CENTRAL SOUTH DAKOTA

CITY           SKY/WX    TMP DP  RH WIND       PRES   REMARKS
RAPID CTY ARPT CLOUDY    50  42  74 NW25      29.70R
PIERRE         SUNNY     62  42  47 E10       29.60R
CUSTER         PTSUNNY   50  40  68 NE10      29.68R
ELLSWORTH AFB  CLOUDY    50  44  81 NW21      29.71R
PHILIP         SUNNY     65  40  39 N18       29.62R
PINE RIDGE     SUNNY     64  41  42 N14G24    29.60R
SPEARFISH      CLOUDY    41  41 100 N10       29.78R
WINNER         FAIR      60  48  64 S10       29.60S
$$

SDZ004>011-016>023-039-040-232300-
NORTHEAST SOUTH DAKOTA

CITY           SKY/WX    TMP DP  RH WIND       PRES   REMARKS
ABERDEEN       CLOUDY    44  34  67 SE7       29.71R
WATERTOWN      CLOUDY    38  38 100 SE10      29.71S FOG
BROOKINGS      CLOUDY    41  38  89 SE14      29.69F
SISSETON         N/A     37  37 100 SE10      29.75S
$$

SDZ017-020-022-023-036>040-048>070-232300-
SOUTHEAST SOUTH DAKOTA

CITY           SKY/WX    TMP DP  RH WIND       PRES   REMARKS
SIOUX FALLS    CLOUDY    51  41  68 SE9       29.68F
HURON          CLOUDY    45  42  89 SE9       29.66F
CHAMBERLAIN    CLOUDY    56  49  77 SE9       29.62R
MITCHELL       CLOUDY    52  44  74 SE9       29.65F
YANKTON        CLOUDY    55  48  76 SE7       29.65R
$$

ABBREVIATIONS USED IN REMARKS
   TC - TEMPERATURE IN CELSIUS
  WCI - WIND CHILL INDEX
   HX - HEAT INDEX
  VSB - VISIBILITY




USA.gov is the U.S. government's official web portal to all federal, state and local government web resources and services.